Regional Weather Roundup
Issued by NWS Boston, MA

Current Version | Previous Version | Text Only | Print | Product List | Glossary Off
Versions: 1 2 3 4 5 6 7 8 9 10 11 12 13 14 15 16 17 18 19 20 21 22 23 24 25 26 27 28

000
ASUS41 KBOX 170210
RWRBOX

REGIONAL WEATHER ROUNDUP
NATIONAL WEATHER SERVICE TAUNTON MA
1000 PM EDT MON OCT 16 2017

NOTE:  "FAIR" INDICATES FEW OR NO CLOUDS BELOW 12,000 FEET WITH NO
SIGNIFICANT WEATHER AND/OR OBSTRUCTIONS TO VISIBILITY.

MAZALL-170300-
EASTERN MASSACHUSETTS

CITY           SKY/WX    TMP DP  RH WIND       PRES   REMARKS
BOSTON         CLOUDY    48  35  60 NW15G24   30.13R
BEVERLY        CLOUDY    45  33  63 NW10      30.12R
LAWRENCE       CLOUDY    46  34  62 NW6       30.15R
BEDFORD        PTCLDY    43  31  62 NW8       30.14R
BLUE HILL        N/A     45  32  60 NW13G25   30.11R
NORWOOD        CLOUDY    49  34  56 NW8G21    30.13R
MARSHFIELD     CLOUDY    50  36  57 NW12G21   30.11R
PLYMOUTH       CLOUDY    50  34  54 N13       30.10R
TAUNTON        CLOUDY    49  34  56 N6        30.11R
NEW BEDFORD    CLOUDY    48  37  65 N6        30.10R
$$

MAZALL-170300-
CAPE COD AND THE ISLANDS

CITY           SKY/WX    TMP DP  RH WIND       PRES   REMARKS
FALMOUTH       CLOUDY    50  39  66 N7        30.10R
HYANNIS        CLOUDY    52  41  66 N16G23    30.07R
CHATHAM        CLOUDY    53  44  71 NW8       30.07R
PROVINCETOWN   CLOUDY    51  41  68 NW23G29   30.09R
NANTUCKET      CLOUDY    54  45  71 N17G29    30.06R
MARTHAS VNYRD  CLOUDY    51  38  60 N14G24    30.09R
$$

MAZALL-170300-
CENTRAL AND WESTERN MASSACHUSETTS

CITY           SKY/WX    TMP DP  RH WIND       PRES   REMARKS
WORCESTER      CLEAR     42  32  67 N12       30.13R
FITCHBURG      CLEAR     44  38  79 N5        30.16R
ORANGE         CLEAR     42  34  73 N8        30.16R
SPRINGFIELD    PTCLDY    48  36  62 N10       30.15R
WESTFIELD      MOCLDY    47  37  68 NW10      30.16R
NORTH ADAMS    CLOUDY    42  37  82 SW9       30.18R
PITTSFIELD     CLEAR     40  29  64 NW10      30.16R
$$

RIZALL-170300-
RHODE ISLAND

CITY           SKY/WX    TMP DP  RH WIND       PRES   REMARKS
PROVIDENCE     PTCLDY    48  38  68 N12       30.13R
NEWPORT        CLEAR     49  39  68 N13G20    30.10R
BLOCK ISLAND   PTCLDY    51  39  63 N12G18    30.12R
SMITHFIELD     PTCLDY    44  36  73 N12       30.13R
WESTERLY       CLEAR     48  41  76 CALM      30.13R
$$

CTZALL-170300-
CONNECTICUT

CITY           SKY/WX    TMP DP  RH WIND       PRES   REMARKS
BRADLEY INTL   MOCLDY    47  35  63 NW15      30.16R
HARTFORD       PTCLDY    49  33  54 NW13      30.16R
BRIDGEPORT     CLEAR     48  35  60 NW6       30.18R
DANBURY        CLEAR     46  35  65 NW7       30.19R
GROTON         CLEAR     48  38  68 NW9       30.13R
NEW HAVEN      MOCLDY    49  34  56 N10       30.16R
CHESTER        FAIR      46  34  61 NW10G16   30.14R
MERIDEN        CLEAR     47  34  60 NW12      30.16R
WILLIMANTIC    PTCLDY    49  38  65 NW6       30.14R
OXFORD         CLEAR     44  34  67 NW10G16   30.17R
$$

MEZ002-015-021-024-NHZ003-005-008-011-012-014-VTZ005-008-170300-
NORTHERN NEW ENGLAND

CITY           SKY/WX    TMP DP  RH WIND       PRES   REMARKS
PORTLAND ME    CLOUDY    45  31  58 N10G20    30.12R
BANGOR ME      PTCLDY    43  31  62 NW9       30.08R
CONCORD NH     CLEAR     41  32  70 NW7       30.15R
MANCHESTER NH  PTCLDY    44  33  65 NW7       30.13R
NASHUA NH      CLEAR     42  33  70 NW7       30.16R
PORTSMOUTH NH  MOCLDY    46  33  61 NW10      30.11R
JAFFREY NH     PTCLDY    41  32  70 N5        30.14R
KEENE NH       MOCLDY    41  32  70 VRB3      30.17
BURLINGTON VT  CLOUDY    45  32  60 NW10      30.20R
MT. WASHINGTON FOG       18  18 100 NW38G44     N/A  VSB 0   WCI  -4
$$

NYZ052-076-170300-
EASTERN NEW YORK

CITY           SKY/WX    TMP DP  RH WIND       PRES   REMARKS
ALBANY         PTCLDY    43  32  65 NW9       30.22R
NEW YORK CITY  PTCLDY    52  35  52 N17       30.19R
$$

ANZALL-170300-
MARINE OBSERVATIONS

STATION/POSITION TIME  TEMP    WIND        PRES    VSBY  WAVE
                       AIR SEA DIR/SP/G                  HT/PER
                 (UTC) (F)     (DEG/KT/KT) (MB)    (MI)  (FT/S)
BOSTON BUOY      0150   50 60  340/ 23/ 27 1017.6R         4/ 5
BUZZARDS BAY     0100   52     350/ 20/ 24 1018.6R
NANTUCKET SOUND  0150   54 63  340/ 21/ 27 1017.4R         3/ 4
MASS BAY-STELLWA 0104   51 60  340/ 21/ 27 1017.8          3/ 5
ISLE OF SHOALS   0100   48     320/ 21/ 22 1018.7R
S OF BLOCK IS    NOT AVBL
$$

......................KEY.........................
  SKY/WX - SKY CONDITION/PRESENT WEATHER
  TMP    - TEMPERATURE IN FAHRENHEIT
  DWPT   - DEWPOINT IN FAHRENHEIT
  RH     - RELATIVE HUMIDITY IN PERCENT
  WIND   - DIRECTION AND SPEED IN MPH
  PRES   - MEAN SEA LEVEL PRESSURE IN INCHES OF HG
  WCI    - WIND CHILL INDEX
  VSB    - VISIBILITY IN MILES
  HX     - HEAT INDEX
  TC     - TEMPERATURE IN CELSIUS
  VRB    - VARIABLE WIND DIRECTION
  N/A    - NOT AVAILABLE




USA.gov is the U.S. government's official web portal to all federal, state and local government web resources and services.